When you browse on this site, cookies collect data to enhance your experience and personalize the content and advertising you see.
Visit our Privacy Policy to learn more. By continuing to use the site, you agree to this use of cookies and data.
  • In Lithuania
  • List of Countries
  • For 7 days
  • Water Temperature
  • Satellite Maps
  • Weather Map
  • Weather Widgets
  • user-avatar
    Login

    Hourly Weather Egra

    Today, 10 December, Monday

    Time Temperature Precipitation Wind Pressure Humidity
    00:00 +20°C° 0 mm 1 mps 760 mmHg 43%
    01:00 +20°C° 0 mm 1 mps 760 mmHg 43%
    02:00 +20°C° 0 mm 1 mps 760 mmHg 44%
    03:00 +19°C° 0 mm 1 mps 759 mmHg 45%
    04:00 +18°C° 0 mm 2 mps 760 mmHg 46%
    05:00 +18°C° 0 mm 2 mps 760 mmHg 46%
    06:00 +17°C° 0 mm 2 mps 760 mmHg 47%
    07:00 +19°C° 0 mm 3 mps 760 mmHg 45%
    08:00 +20°C° 0 mm 3 mps 761 mmHg 42%
    09:00 +22°C° 0 mm 3 mps 761 mmHg 40%
    10:00 +25°C° 0 mm 3 mps 761 mmHg 36%
    11:00 +26°C° 0 mm 3 mps 761 mmHg 32%
    12:00 +28°C° 0 mm 3 mps 760 mmHg 28%
    13:00 +29°C° 0 mm 3 mps 760 mmHg 27%
    14:00 +29°C° 0 mm 2 mps 759 mmHg 25%
    15:00 +29°C° 0 mm 2 mps 758 mmHg 24%
    16:00 +28°C° 0 mm 2 mps 758 mmHg 27%
    17:00 +26°C° 0 mm 2 mps 759 mmHg 31%
    18:00 +25°C° 0 mm 2 mps 759 mmHg 34%
    19:00 +24°C° 0 mm 2 mps 759 mmHg 36%
    20:00 +24°C° 0 mm 1 mps 760 mmHg 38%
    21:00 +23°C° 0 mm 1 mps 760 mmHg 40%
    22:00 +23°C° 0 mm 1 mps 760 mmHg 41%
    23:00 +22°C° 0 mm 1 mps 760 mmHg 42%

    Tomorrow, 11 December, Tuesday

    Time Temperature Precipitation Wind Pressure Humidity
    00:00 +22°C° 0 mm 1 mps 760 mmHg 43%
    01:00 +22°C° 0 mm 1 mps 760 mmHg 44%
    02:00 +20°C° 0 mm 2 mps 760 mmHg 44%
    03:00 +20°C° 0 mm 2 mps 759 mmHg 45%
    04:00 +20°C° 0 mm 2 mps 759 mmHg 46%
    05:00 +19°C° 0 mm 2 mps 759 mmHg 47%
    06:00 +19°C° 0 mm 2 mps 760 mmHg 48%
    07:00 +21°C° 0 mm 3 mps 760 mmHg 46%
    08:00 +22°C° 0 mm 3 mps 761 mmHg 44%
    09:00 +24°C° 0 mm 3 mps 761 mmHg 42%
    10:00 +26°C° 0 mm 3 mps 761 mmHg 38%
    11:00 +28°C° 0 mm 3 mps 761 mmHg 35%
    12:00 +29°C° 0 mm 3 mps 760 mmHg 31%
    13:00 +30°C° 0 mm 3 mps 760 mmHg 31%
    14:00 +30°C° 0 mm 3 mps 759 mmHg 30%
    15:00 +30°C° 0 mm 3 mps 758 mmHg 30%
    16:00 +29°C° 0 mm 2 mps 758 mmHg 33%
    17:00 +28°C° 0 mm 2 mps 759 mmHg 37%
    18:00 +26°C° 0 mm 2 mps 759 mmHg 40%
    19:00 +25°C° 0 mm 2 mps 759 mmHg 41%
    20:00 +25°C° 0 mm 2 mps 760 mmHg 43%
    21:00 +24°C° 0 mm 3 mps 761 mmHg 44%
    22:00 +24°C° 0 mm 2 mps 761 mmHg 45%
    23:00 +23°C° 0 mm 2 mps 761 mmHg 45%

    Day after tomorrow, 12 December, Wednesday

    Time Temperature Precipitation Wind Pressure Humidity
    00:00 +23°C° 0 mm 2 mps 761 mmHg 46%
    01:00 +21°C° 0 mm 3 mps 760 mmHg 47%
    02:00 +21°C° 0 mm 3 mps 760 mmHg 47%
    03:00 +21°C° 0 mm 3 mps 760 mmHg 48%
    04:00 +20°C° 0 mm 3 mps 760 mmHg 49%
    05:00 +20°C° 0 mm 3 mps 760 mmHg 49%
    06:00 +19°C° 0 mm 3 mps 761 mmHg 50%
    07:00 +21°C° 0 mm 3 mps 761 mmHg 47%
    08:00 +22°C° 0 mm 4 mps 762 mmHg 44%
    09:00 +23°C° 0 mm 4 mps 762 mmHg 40%
    10:00 +26°C° 0 mm 4 mps 762 mmHg 36%
    11:00 +28°C° 0 mm 4 mps 762 mmHg 31%
    12:00 +30°C° 0 mm 4 mps 762 mmHg 27%
    13:00 +30°C° 0 mm 4 mps 761 mmHg 27%
    14:00 +30°C° 0 mm 4 mps 760 mmHg 27%
    15:00 +32°C° 0 mm 4 mps 759 mmHg 27%
    16:00 +29°C° 0 mm 4 mps 760 mmHg 30%
    17:00 +27°C° 0 mm 4 mps 760 mmHg 33%
    18:00 +26°C° 0 mm 4 mps 760 mmHg 36%
    19:00 +25°C° 0 mm 4 mps 760 mmHg 37%
    20:00 +24°C° 0 mm 3 mps 761 mmHg 37%
    21:00 +24°C° 0 mm 3 mps 762 mmHg 38%
    22:00 +22°C° 0 mm 3 mps 762 mmHg 38%
    23:00 +22°C° 0 mm 3 mps 762 mmHg 38%

    13 December, Thursday

    Time Temperature Precipitation Wind Pressure Humidity
    00:00 +21°C° 0 mm 3 mps 762 mmHg 38%
    01:00 +21°C° 0 mm 3 mps 761 mmHg 39%
    02:00 +20°C° 0 mm 3 mps 761 mmHg 39%
    03:00 +20°C° 0 mm 3 mps 761 mmHg 40%
    04:00 +19°C° 0 mm 3 mps 761 mmHg 41%
    05:00 +19°C° 0 mm 3 mps 761 mmHg 42%
    06:00 +19°C° 0 mm 3 mps 761 mmHg 42%
    07:00 +20°C° 0 mm 3 mps 762 mmHg 40%
    08:00 +21°C° 0 mm 3 mps 762 mmHg 38%
    09:00 +22°C° 0 mm 4 mps 763 mmHg 36%
    10:00 +25°C° 0 mm 4 mps 762 mmHg 32%
    11:00 +27°C° 0 mm 4 mps 762 mmHg 29%
    12:00 +29°C° 0 mm 4 mps 762 mmHg 26%
    13:00 +29°C° 0 mm 4 mps 761 mmHg 26%
    14:00 +29°C° 0 mm 4 mps 760 mmHg 26%
    15:00 +30°C° 0 mm 4 mps 759 mmHg 26%
    16:00 +28°C° 0 mm 4 mps 760 mmHg 29%
    17:00 +27°C° 0 mm 3 mps 760 mmHg 31%
    18:00 +25°C° 0 mm 3 mps 760 mmHg 33%
    19:00 +25°C° 0 mm 3 mps 761 mmHg 34%
    20:00 +24°C° 0 mm 3 mps 761 mmHg 34%
    21:00 +24°C° 0 mm 3 mps 762 mmHg 34%
    22:00 +22°C° 0 mm 3 mps 762 mmHg 35%
    23:00 +22°C° 0 mm 3 mps 762 mmHg 35%

    14 December, Friday

    Time Temperature Precipitation Wind Pressure Humidity
    00:00 +21°C° 0 mm 3 mps 762 mmHg 36%
    01:00 +20°C° 0 mm 3 mps 761 mmHg 36%
    02:00 +20°C° 0 mm 3 mps 761 mmHg 37%
    03:00 +20°C° 0 mm 3 mps 761 mmHg 37%
    04:00 +19°C° 0 mm 3 mps 761 mmHg 38%
    05:00 +19°C° 0 mm 3 mps 761 mmHg 38%
    06:00 +18°C° 0 mm 4 mps 762 mmHg 39%
    07:00 +20°C° 0 mm 4 mps 762 mmHg 37%
    08:00 +21°C° 0 mm 4 mps 763 mmHg 36%
    09:00 +22°C° 0 mm 5 mps 763 mmHg 34%
    10:00 +25°C° 0 mm 5 mps 763 mmHg 30%
    11:00 +27°C° 0 mm 5 mps 763 mmHg 27%
    12:00 +29°C° 0 mm 5 mps 762 mmHg 23%
    13:00 +29°C° 0 mm 5 mps 762 mmHg 23%
    14:00 +30°C° 0 mm 5 mps 761 mmHg 23%
    15:00 +30°C° 0 mm 5 mps 760 mmHg 23%
    16:00 +29°C° 0 mm 4 mps 761 mmHg 25%
    17:00 +27°C° 0 mm 3 mps 761 mmHg 27%
    18:00 +26°C° 0 mm 2 mps 762 mmHg 29%
    19:00 +25°C° 0 mm 2 mps 762 mmHg 29%
    20:00 +25°C° 0 mm 2 mps 763 mmHg 30%
    21:00 +24°C° 0 mm 2 mps 763 mmHg 30%
    22:00 +22°C° 0 mm 3 mps 763 mmHg 30%
    23:00 +22°C° 0 mm 3 mps 763 mmHg 30%

    15 December, Saturday

    Time Temperature Precipitation Wind Pressure Humidity
    00:00 +22°C° 0 mm 3 mps 763 mmHg 30%
    01:00 +21°C° 0 mm 4 mps 763 mmHg 30%
    02:00 +21°C° 0 mm 4 mps 763 mmHg 30%
    03:00 +21°C° 0 mm 5 mps 762 mmHg 30%
    04:00 +20°C° 0 mm 5 mps 763 mmHg 31%
    05:00 +20°C° 0 mm 5 mps 763 mmHg 33%
    06:00 +19°C° 0 mm 5 mps 763 mmHg 34%
    07:00 +20°C° 0 mm 5 mps 764 mmHg 34%
    08:00 +21°C° 0 mm 5 mps 764 mmHg 33%
    09:00 +21°C° 0 mm 5 mps 765 mmHg 33%
    10:00 +23°C° 0 mm 5 mps 764 mmHg 29%
    11:00 +26°C° 0 mm 5 mps 764 mmHg 25%
    12:00 +28°C° 0 mm 4 mps 764 mmHg 21%
    13:00 +28°C° 0 mm 4 mps 763 mmHg 20%
    14:00 +28°C° 0 mm 3 mps 763 mmHg 20%
    15:00 +28°C° 0 mm 3 mps 762 mmHg 19%
    16:00 +27°C° 0 mm 2 mps 762 mmHg 20%
    17:00 +27°C° 0 mm 2 mps 763 mmHg 21%
    18:00 +26°C° 0 mm 1 mps 763 mmHg 21%
    19:00 +25°C° 0 mm 1 mps 763 mmHg 22%
    20:00 +25°C° 0 mm 1 mps 763 mmHg 22%
    21:00 +25°C° 0 mm 1 mps 764 mmHg 22%
    22:00 +25°C° 0 mm 2 mps 764 mmHg 23%
    23:00 +24°C° 0 mm 2 mps 763 mmHg 23%
    Show more